START_TIME,STEP,MOV.,M35,t_acc.,PL05,t_acc.,PL06,t_acc.,PL07,t_acc.
1979-07-01 09:00:24.870 ,0,0,0.,4.8,2.,4.8,0.,4.8,1.,4.8
1979-07-01 09:00:29.670 ,0,0,0.,4.8,1.,4.8,0.,4.8,3.,4.8
1979-07-01 09:00:34.470 ,0,0,0.,4.8,3.,4.8,1.,4.8,1.,4.8
1979-07-01 09:00:39.270 ,0,0,0.,4.8,3.,4.8,1.,4.8,0.,4.8
1979-07-01 09:00:44.070 ,0,0,0.,4.8,3.,4.8,1.,4.8,1.,4.8
1979-07-01 09:00:48.870 ,0,0,0.,4.8,4.,4.8,0.,4.8,1.,4.8
1979-07-01 09:00:53.670 ,0,0,0.,4.8,3.,4.8,0.,4.8,0.,4.8
1979-07-01 09:00:58.470 ,0,0,0.,4.8,1.,4.8,0.,4.8,0.,4.8
1979-07-01 09:01:03.270 ,0,0,1.,4.8,5.,4.8,1.,4.8,2.,4.8
1979-07-01 09:01:08.070 ,0,0,0.,4.8,2.,4.8,0.,4.8,1.,4.8
1979-07-01 09:01:12.870 ,0,0,0.,4.8,3.,4.8,1.,4.8,2.,4.8
1979-07-01 09:01:17.670 ,0,0,0.,4.8,4.,4.8,2.,4.8,1.,4.8
1979-07-01 09:01:22.470 ,0,0,0.,4.8,0.,4.8,2.,4.8,2.,4.8
1979-07-01 09:01:27.270 ,0,0,0.,4.8,4.,4.8,1.,4.8,0.,4.8
1979-07-01 09:01:32.070 ,0,0,0.,4.8,7.,4.8,1.,4.8,0.,4.8
1979-07-01 09:01:36.870 ,1,0,0.,4.8,2.,4.8,2.,4.8,0.,4.8
1979-07-01 09:01:41.670 ,1,0,0.,4.8,2.,4.8,1.,4.8,0.,4.8
1979-07-01 09:01:46.470 ,1,0,0.,4.8,4.,4.8,0.,4.8,0.,4.8
1979-07-01 09:01:51.270 ,1,0,0.,4.8,5.,4.8,3.,4.8,0.,4.8
1979-07-01 09:01:56.070 ,1,0,0.,4.8,2.,4.8,3.,4.8,1.,4.8
1979-07-01 09:02:00.870 ,1,0,0.,4.8,6.,4.8,0.,4.8,0.,4.8
1979-07-01 09:02:05.670 ,1,0,0.,4.8,3.,4.8,1.,4.8,0.,4.8
1979-07-01 09:02:10.470 ,1,0,0.,4.8,0.,4.8,2.,4.8,1.,4.8
1979-07-01 09:02:15.270 ,1,0,0.,4.8,3.,4.8,1.,4.8,0.,4.8
1979-07-01 09:02:20.070 ,1,0,0.,4.8,5.,4.8,2.,4.8,0.,4.8
1979-07-01 09:02:24.870 ,2,0,0.,4.8,0.,4.8,2.,4.8,0.,4.8
1979-07-01 09:02:29.670 ,2,0,0.,4.8,0.,4.8,2.,4.8,0.,4.8
1979-07-01 09:02:34.470 ,2,0,0.,4.8,2.,4.8,0.,4.8,0.,4.8
1979-07-01 09:02:39.270 ,2,0,0.,4.8,3.,4.8,0.,4.8,0.,4.8
1979-07-01 09:02:44.070 ,2,0,0.,4.8,2.,4.8,1.,4.8,0.,4.8
1979-07-01 09:02:48.870 ,2,0,0.,4.8,1.,4.8,1.,4.8,2.,4.8
1979-07-01 09:02:53.670 ,2,0,0.,4.8,4.,4.8,0.,4.8,1.,4.8
1979-07-01 09:02:58.470 ,2,0,0.,4.8,0.,4.8,1.,4.8,0.,4.8
1979-07-01 09:03:03.270 ,2,0,0.,4.8,5.,4.8,2.,4.8,0.,4.8
1979-07-01 09:03:08.070 ,2,0,0.,4.8,2.,4.8,2.,4.8,0.,4.8
1979-07-01 09:03:12.870 ,3,0,0.,4.8,3.,4.8,0.,4.8,1.,4.8
1979-07-01 09:03:17.670 ,3,0,0.,4.8,4.,4.8,2.,4.8,0.,4.8
1979-07-01 09:03:22.470 ,3,0,0.,4.8,2.,4.8,1.,4.8,0.,4.8
1979-07-01 09:03:27.270 ,3,0,0.,4.8,4.,4.8,0.,4.8,0.,4.8
1979-07-01 09:03:32.070 ,3,0,0.,4.8,2.,4.8,1.,4.8,0.,4.8
1979-07-01 09:03:36.870 ,3,0,0.,4.8,1.,4.8,1.,4.8,1.,4.8
1979-07-01 09:03:41.670 ,3,0,0.,4.8,3.,4.8,2.,4.8,1.,4.8
1979-07-01 09:03:46.470 ,3,0,0.,4.8,4.,4.8,2.,4.8,0.,4.8
1979-07-01 09:03:51.270 ,3,0,0.,4.8,4.,4.8,1.,4.8,1.,4.8
1979-07-01 09:03:56.070 ,3,0,0.,4.8,3.,4.8,0.,4.8,1.,4.8
1979-07-01 09:04:00.870 ,4,0,0.,4.8,5.,4.8,2.,4.8,1.,4.8
1979-07-01 09:04:05.670 ,4,0,0.,4.8,5.,4.8,1.,4.8,1.,4.8
1979-07-01 09:04:10.470 ,4,0,0.,4.8,3.,4.8,2.,4.8,0.,4.8
1979-07-01 09:04:15.270 ,4,0,0.,4.8,4.,4.8,0.,4.8,1.,4.8
1979-07-01 09:04:20.070 ,4,0,0.,4.8,8.,4.8,2.,4.8,0.,4.8
1979-07-01 09:04:24.870 ,0,0,0.,4.8,4.,4.8,0.,4.8,0.,4.8
1979-07-01 09:04:29.670 ,0,0,0.,4.8,1.,4.8,1.,4.8,2.,4.8
1979-07-01 09:04:34.470 ,0,0,0.,4.8,2.,4.8,1.,4.8,0.,4.8
1979-07-01 09:04:39.270 ,0,0,0.,4.8,7.,4.8,2.,4.8,0.,4.8
1979-07-01 09:04:44.070 ,0,0,,0,,0,,0,,0
1979-07-01 09:04:48.870 ,5,0,0.,4.8,7.,4.8,2.,4.8,0.,4.8
1979-07-01 09:04:53.670 ,5,0,0.,4.8,3.,4.8,1.,4.8,0.,4.8
1979-07-01 09:04:58.470 ,5,0,0.,4.8,1.,4.8,1.,4.8,1.,4.8
1979-07-01 09:05:03.270 ,5,0,0.,4.8,2.,4.8,3.,4.8,1.,4.8
1979-07-01 09:05:08.070 ,5,0,0.,4.8,2.,4.8,1.,4.8,0.,4.8
1979-07-01 09:05:12.870 ,5,0,0.,4.8,4.,4.8,3.,4.8,2.,4.8
1979-07-01 09:05:17.670 ,5,0,0.,4.8,2.,4.8,1.,4.8,0.,4.8
1979-07-01 09:05:22.470 ,5,0,0.,4.8,3.,4.8,1.,4.8,2.,4.8
1979-07-01 09:05:27.270 ,5,0,0.,4.8,1.,4.8,2.,4.8,3.,4.8
1979-07-01 09:05:32.070 ,5,0,0.,4.8,2.,4.8,0.,4.8,1.,4.8
1979-07-01 09:05:36.870 ,6,0,0.,4.8,2.,4.8,0.,4.8,2.,4.8
1979-07-01 09:05:41.670 ,6,0,0.,4.8,3.,4.8,0.,4.8,1.,4.8
1979-07-01 09:05:46.470 ,6,0,0.,4.8,5.,4.8,1.,4.8,1.,4.8
1979-07-01 09:05:51.270 ,6,0,0.,4.8,3.,4.8,2.,4.8,2.,4.8
1979-07-01 09:05:56.070 ,6,0,0.,4.8,4.,4.8,1.,4.8,0.,4.8
1979-07-01 09:06:00.870 ,6,0,0.,4.8,6.,4.8,4.,4.8,0.,4.8
1979-07-01 09:06:05.670 ,6,0,0.,4.8,4.,4.8,2.,4.8,0.,4.8
1979-07-01 09:06:10.470 ,6,0,0.,4.8,2.,4.8,0.,4.8,2.,4.8
1979-07-01 09:06:15.270 ,6,0,0.,4.8,4.,4.8,1.,4.8,0.,4.8
1979-07-01 09:06:20.070 ,6,0,0.,4.8,4.,4.8,1.,4.8,1.,4.8
1979-07-01 09:06:24.870 ,7,0,0.,4.8,4.,4.8,0.,4.8,0.,4.8
1979-07-01 09:06:29.670 ,7,0,0.,4.8,6.,4.8,1.,4.8,1.,4.8
1979-07-01 09:06:34.470 ,7,0,0.,4.8,0.,4.8,0.,4.8,0.,4.8
1979-07-01 09:06:39.270 ,7,0,0.,4.8,0.,4.8,0.,4.8,0.,4.8
1979-07-01 09:06:44.070 ,7,0,0.,4.8,2.,4.8,0.,4.8,0.,4.8
1979-07-01 09:06:48.870 ,7,0,0.,4.8,0.,4.8,0.,4.8,0.,4.8
1979-07-01 09:06:53.670 ,7,0,0.,4.8,0.,4.8,0.,4.8,0.,4.8
1979-07-01 09:06:58.470 ,7,0,0.,4.8,0.,4.8,0.,4.8,0.,4.8
1979-07-01 09:07:03.270 ,7,0,0.,4.8,4.,4.8,0.,4.8,0.,4.8
1979-07-01 09:07:08.070 ,7,0,0.,4.8,0.,4.8,1.,4.8,0.,4.8
1979-07-01 09:07:12.870 ,3,1,0.,4.8,1.,4.8,1.,4.8,0.,4.8
1979-07-01 09:07:17.670 ,3,1,0.,4.8,2.,4.8,1.,4.8,0.,4.8
1979-07-01 09:07:22.470 ,3,1,0.,4.8,1.,4.8,0.,4.8,0.,4.8
1979-07-01 09:07:27.270 ,3,1,0.,4.8,1.,4.8,1.,4.8,3.,4.8
1979-07-01 09:07:32.070 ,3,1,0.,4.8,3.,4.8,1.,4.8,0.,4.8
1979-07-01 09:07:36.870 ,0,1,0.,4.8,6.,4.8,3.,4.8,1.,4.8
1979-07-01 09:07:41.670 ,0,1,0.,4.8,4.,4.8,1.,4.8,1.,4.8
1979-07-01 09:07:46.470 ,0,1,0.,4.8,3.,4.8,0.,4.8,2.,4.8
1979-07-01 09:07:51.270 ,0,1,0.,4.8,0.,4.8,1.,4.8,1.,4.8
1979-07-01 09:07:56.070 ,0,1,0.,4.8,3.,4.8,1.,4.8,2.,4.8
1979-07-01 09:08:00.870 ,4,1,0.,4.8,2.,4.8,0.,4.8,0.,4.8
1979-07-01 09:08:05.670 ,4,1,0.,4.8,2.,4.8,1.,4.8,0.,4.8
1979-07-01 09:08:10.470 ,4,1,0.,4.8,1.,4.8,0.,4.8,0.,4.8
1979-07-01 09:08:15.270 ,4,1,0.,4.8,2.,4.8,1.,4.8,0.,4.8
1979-07-01 09:08:20.070 ,4,1,0.,4.8,1.,4.8,1.,4.8,0.,4.8
1979-07-01 09:08:24.870 ,7,1,0.,4.8,2.,4.8,2.,4.8,1.,4.8
1979-07-01 09:08:29.670 ,7,1,0.,4.8,4.,4.8,0.,4.8,1.,4.8
1979-07-01 09:08:34.470 ,7,1,0.,4.8,2.,4.8,2.,4.8,2.,4.8
1979-07-01 09:08:39.270 ,7,1,0.,4.8,1.,4.8,1.,4.8,1.,4.8
1979-07-01 09:08:44.070 ,7,1,0.,4.8,0.,4.8,0.,4.8,0.,4.8
1979-07-01 09:09:36.870 ,0,0,0.,4.8,2.,4.8,0.,4.8,2.,4.8
1979-07-01 09:09:41.670 ,0,0,0.,4.8,3.,4.8,0.,4.8,1.,4.8
1979-07-01 09:09:46.470 ,0,0,0.,4.8,6.,4.8,2.,4.8,0.,4.8
1979-07-01 09:09:51.270 ,0,0,0.,4.8,8.,4.8,0.,4.8,0.,4.8
1979-07-01 09:09:56.070 ,0,0,0.,4.8,4.,4.8,1.,4.8,1.,4.8
1979-07-01 09:10:00.870 ,7,1,0.,4.8,4.,4.8,1.,4.8,0.,4.8
1979-07-01 09:10:05.670 ,7,1,0.,4.8,8.,4.8,3.,4.8,0.,4.8
1979-07-01 09:10:10.470 ,7,1,0.,4.8,7.,4.8,1.,4.8,2.,4.8
1979-07-01 09:10:15.270 ,7,1,0.,4.8,1.,4.8,1.,4.8,0.,4.8
1979-07-01 09:10:20.070 ,7,1,0.,4.8,0.,4.8,0.,4.8,0.,4.8
1979-07-01 09:10:24.870 ,3,1,0.,4.8,2.,4.8,1.,4.8,0.,4.8
1979-07-01 09:10:29.670 ,3,1,0.,4.8,6.,4.8,0.,4.8,3.,4.8
1979-07-01 09:10:34.470 ,3,1,0.,4.8,3.,4.8,0.,4.8,1.,4.8
1979-07-01 09:10:39.270 ,3,1,0.,4.8,2.,4.8,1.,4.8,0.,4.8
1979-07-01 09:10:44.070 ,3,1,0.,4.8,1.,4.8,1.,4.8,0.,4.8
1979-07-01 09:10:48.870 ,0,1,,0,,0,,0,,0
1979-07-01 09:10:53.670 ,0,1,0.,4.8,4.,4.8,2.,4.8,1.,4.8
1979-07-01 09:10:58.470 ,0,1,0.,4.8,1.,4.8,0.,4.8,0.,4.8
1979-07-01 09:11:03.270 ,0,1,0.,4.8,2.,4.8,0.,4.8,0.,4.8
1979-07-01 09:11:08.070 ,0,1,0.,4.8,5.,4.8,0.,4.8,3.,4.8
1979-07-01 09:11:12.870 ,4,1,0.,4.8,1.,4.8,0.,4.8,0.,4.8
1979-07-01 09:11:17.670 ,4,1,0.,4.8,2.,4.8,0.,4.8,0.,4.8
1979-07-01 09:11:22.470 ,4,1,0.,4.8,2.,4.8,2.,4.8,0.,4.8
1979-07-01 09:11:27.270 ,4,1,0.,4.8,0.,4.8,1.,4.8,0.,4.8
1979-07-01 09:11:32.070 ,4,1,0.,4.8,3.,4.8,2.,4.8,3.,4.8
1979-07-01 09:11:36.870 ,7,1,0.,4.8,1.,4.8,0.,4.8,0.,4.8
1979-07-01 09:11:41.670 ,7,1,0.,4.8,1.,4.8,1.,4.8,0.,4.8
1979-07-01 09:11:46.470 ,7,1,0.,4.8,7.,4.8,0.,4.8,0.,4.8
1979-07-01 09:11:51.270 ,7,1,0.,4.8,0.,4.8,1.,4.8,0.,4.8
1979-07-01 09:11:56.070 ,7,1,0.,4.8,0.,4.8,0.,4.8,0.,4.8
1979-07-01 09:12:00.870 ,3,1,0.,4.8,2.,4.8,1.,4.8,2.,4.8
1979-07-01 09:12:05.670 ,3,1,0.,4.8,1.,4.8,3.,4.8,1.,4.8
1979-07-01 09:12:10.470 ,3,1,0.,4.8,1.,4.8,0.,4.8,2.,4.8
1979-07-01 09:12:15.270 ,3,1,0.,4.8,0.,4.8,0.,4.8,2.,4.8
1979-07-01 09:12:20.070 ,3,1,0.,4.8,3.,4.8,0.,4.8,0.,4.8
1979-07-01 09:12:24.870 ,0,1,0.,4.8,7.,4.8,2.,4.8,1.,4.8
1979-07-01 09:12:29.670 ,0,1,0.,4.8,6.,4.8,1.,4.8,0.,4.8
1979-07-01 09:12:34.470 ,0,1,0.,4.8,2.,4.8,2.,4.8,1.,4.8
1979-07-01 09:12:39.270 ,0,1,0.,4.8,5.,4.8,1.,4.8,1.,4.8
1979-07-01 09:12:44.070 ,0,1,0.,4.8,4.,4.8,0.,4.8,0.,4.8
1979-07-01 09:12:48.870 ,4,1,0.,4.8,3.,4.8,1.,4.8,2.,4.8
1979-07-01 09:12:53.670 ,4,1,0.,4.8,2.,4.8,2.,4.8,0.,4.8
1979-07-01 09:12:58.470 ,4,1,0.,4.8,3.,4.8,0.,4.8,1.,4.8
1979-07-01 09:13:03.270 ,4,1,0.,4.8,4.,4.8,1.,4.8,0.,4.8
1979-07-01 09:13:08.070 ,4,1,0.,4.8,1.,4.8,1.,4.8,0.,4.8
1979-07-01 09:13:12.870 ,7,1,0.,4.8,6.,4.8,0.,4.8,0.,4.8
1979-07-01 09:13:17.670 ,7,1,0.,4.8,4.,4.8,1.,4.8,0.,4.8
1979-07-01 09:13:22.470 ,7,1,0.,4.8,6.,4.8,7.,4.8,0.,4.8
1979-07-01 09:13:27.270 ,7,1,0.,4.8,1.,4.8,0.,4.8,0.,4.8
1979-07-01 09:13:32.070 ,7,1,0.,4.8,1.,4.8,1.,4.8,0.,4.8
1979-07-01 09:13:36.870 ,3,1,0.,4.8,3.,4.8,1.,4.8,0.,4.8
1979-07-01 09:13:41.670 ,3,1,0.,4.8,8.,4.8,1.,4.8,2.,4.8
1979-07-01 09:13:46.470 ,3,1,0.,4.8,6.,4.8,1.,4.8,0.,4.8
1979-07-01 09:13:51.270 ,3,1,0.,4.8,4.,4.8,1.,4.8,0.,4.8
1979-07-01 09:13:56.070 ,3,1,0.,4.8,4.,4.8,2.,4.8,0.,4.8
1979-07-01 09:14:00.870 ,0,1,0.,4.8,6.,4.8,2.,4.8,0.,4.8
1979-07-01 09:14:05.670 ,0,1,0.,4.8,4.,4.8,0.,4.8,0.,4.8
1979-07-01 09:14:10.470 ,0,1,0.,4.8,3.,4.8,0.,4.8,0.,4.8
1979-07-01 09:14:15.270 ,0,1,0.,4.8,5.,4.8,2.,4.8,0.,4.8
1979-07-01 09:14:20.070 ,0,1,0.,4.8,1.,4.8,2.,4.8,1.,4.8
1979-07-01 09:14:24.870 ,4,1,0.,4.8,7.,4.8,2.,4.8,0.,4.8
1979-07-01 09:14:29.670 ,4,1,0.,4.8,4.,4.8,1.,4.8,0.,4.8
1979-07-01 09:14:34.470 ,4,1,0.,4.8,1.,4.8,1.,4.8,0.,4.8
1979-07-01 09:14:39.270 ,4,1,0.,4.8,1.,4.8,1.,4.8,2.,4.8
1979-07-01 09:14:44.070 ,4,1,0.,4.8,1.,4.8,2.,4.8,0.,4.8
1979-07-01 09:14:48.870 ,7,1,0.,4.8,2.,4.8,0.,4.8,1.,4.8
1979-07-01 09:14:53.670 ,7,1,0.,4.8,3.,4.8,0.,4.8,1.,4.8
1979-07-01 09:14:58.470 ,7,1,0.,4.8,2.,4.8,3.,4.8,0.,4.8
1979-07-01 09:15:03.270 ,7,1,0.,4.8,2.,4.8,0.,4.8,0.,4.8
1979-07-01 09:15:08.070 ,7,1,0.,4.8,0.,4.8,0.,4.8,1.,4.8
1979-07-01 09:15:12.870 ,3,1,0.,4.8,3.,4.8,1.,4.8,0.,4.8
1979-07-01 09:15:17.670 ,3,1,0.,4.8,2.,4.8,4.,4.8,1.,4.8
1979-07-01 09:15:22.470 ,3,1,0.,4.8,2.,4.8,1.,4.8,1.,4.8
1979-07-01 09:15:27.270 ,3,1,0.,4.8,5.,4.8,2.,4.8,0.,4.8
1979-07-01 09:15:32.070 ,3,1,0.,4.8,3.,4.8,1.,4.8,0.,4.8
1979-07-01 09:15:36.870 ,0,1,0.,4.8,4.,4.8,2.,4.8,0.,4.8
1979-07-01 09:15:41.670 ,0,1,0.,4.8,5.,4.8,0.,4.8,0.,4.8
1979-07-01 09:15:46.470 ,0,1,0.,4.8,3.,4.8,1.,4.8,1.,4.8
1979-07-01 09:15:51.270 ,0,1,0.,4.8,3.,4.8,1.,4.8,0.,4.8
1979-07-01 09:15:56.070 ,0,1,0.,4.8,1.,4.8,0.,4.8,0.,4.8
1979-07-01 09:16:00.870 ,4,1,0.,4.8,2.,4.8,1.,4.8,0.,4.8
1979-07-01 09:16:05.670 ,4,1,0.,4.8,2.,4.8,1.,4.8,0.,4.8
1979-07-01 09:16:10.470 ,4,1,0.,4.8,7.,4.8,1.,4.8,0.,4.8
1979-07-01 09:16:15.270 ,4,1,0.,4.8,0.,4.8,0.,4.8,1.,4.8
1979-07-01 09:16:20.070 ,4,1,0.,4.8,3.,4.8,1.,4.8,2.,4.8
1979-07-01 09:16:24.870 ,7,1,0.,4.8,4.,4.8,1.,4.8,2.,4.8
1979-07-01 09:16:29.670 ,7,1,0.,4.8,2.,4.8,3.,4.8,2.,4.8
1979-07-01 09:16:34.470 ,7,1,0.,4.8,4.,4.8,3.,4.8,0.,4.8
1979-07-01 09:16:39.270 ,7,1,0.,4.8,0.,4.8,0.,4.8,0.,4.8
1979-07-01 09:16:44.070 ,7,1,0.,4.8,1.,4.8,0.,4.8,0.,4.8
1979-07-01 09:16:48.870 ,3,1,0.,4.8,0.,4.8,0.,4.8,2.,4.8
1979-07-01 09:16:53.670 ,3,1,0.,4.8,2.,4.8,2.,4.8,0.,4.8
1979-07-01 09:16:58.470 ,3,1,0.,4.8,9.,4.8,0.,4.8,0.,4.8
1979-07-01 09:17:03.270 ,3,1,0.,4.8,5.,4.8,1.,4.8,2.,4.8
1979-07-01 09:17:08.070 ,3,1,0.,4.8,3.,4.8,1.,4.8,0.,4.8
1979-07-01 09:17:12.870 ,0,1,0.,4.8,3.,4.8,1.,4.8,2.,4.8
1979-07-01 09:17:17.670 ,0,1,0.,4.8,4.,4.8,3.,4.8,1.,4.8
1979-07-01 09:17:22.470 ,0,1,0.,4.8,1.,4.8,0.,4.8,0.,4.8
1979-07-01 09:17:27.270 ,0,1,0.,4.8,1.,4.8,1.,4.8,0.,4.8
1979-07-01 09:17:32.070 ,0,1,0.,4.8,5.,4.8,2.,4.8,1.,4.8
1979-07-01 09:17:36.870 ,0,0,0.,4.8,2.,4.8,1.,4.8,2.,4.8
1979-07-01 09:17:41.670 ,0,0,0.,4.8,4.,4.8,1.,4.8,0.,4.8
1979-07-01 09:17:46.470 ,0,0,0.,4.8,5.,4.8,0.,4.8,0.,4.8
1979-07-01 09:17:51.270 ,0,0,0.,4.8,4.,4.8,1.,4.8,1.,4.8
1979-07-01 09:17:56.070 ,0,0,0.,4.8,4.,4.8,3.,4.8,1.,4.8
1979-07-01 09:18:00.870 ,0,0,0.,4.8,8.,4.8,0.,4.8,2.,4.8
1979-07-01 09:18:05.670 ,0,0,0.,4.8,5.,4.8,0.,4.8,0.,4.8
1979-07-01 09:18:10.470 ,0,0,0.,4.8,1.,4.8,1.,4.8,1.,4.8
1979-07-01 09:18:15.270 ,0,0,0.,4.8,2.,4.8,0.,4.8,2.,4.8
1979-07-01 09:18:20.070 ,0,0,0.,4.8,1.,4.8,0.,4.8,0.,4.8
1979-07-01 09:18:24.870 ,5,0,0.,4.8,3.,4.8,1.,4.8,0.,4.8
1979-07-01 09:18:29.670 ,5,0,0.,4.8,2.,4.8,0.,4.8,2.,4.8
1979-07-01 09:18:34.470 ,5,0,0.,4.8,2.,4.8,0.,4.8,1.,4.8
1979-07-01 09:18:39.270 ,5,0,0.,4.8,6.,4.8,1.,4.8,0.,4.8
1979-07-01 09:18:44.070 ,5,0,0.,4.8,5.,4.8,4.,4.8,0.,4.8
1979-07-01 09:18:48.870 ,5,0,0.,4.8,2.,4.8,5.,4.8,1.,4.8
1979-07-01 09:18:53.670 ,5,0,0.,4.8,9.,4.8,3.,4.8,0.,4.8
1979-07-01 09:18:58.470 ,5,0,0.,4.8,4.,4.8,1.,4.8,1.,4.8
1979-07-01 09:19:03.270 ,5,0,0.,4.8,2.,4.8,1.,4.8,0.,4.8
1979-07-01 09:19:08.070 ,5,0,0.,4.8,4.,4.8,1.,4.8,0.,4.8
1979-07-01 09:19:12.870 ,4,0,0.,4.8,4.,4.8,0.,4.8,1.,4.8
1979-07-01 09:19:17.670 ,4,0,0.,4.8,0.,4.8,3.,4.8,0.,4.8
1979-07-01 09:19:22.470 ,4,0,1.,4.8,3.,4.8,1.,4.8,1.,4.8
1979-07-01 09:19:27.270 ,4,0,0.,4.8,7.,4.8,1.,4.8,1.,4.8
1979-07-01 09:19:32.070 ,4,0,0.,4.8,4.,4.8,0.,4.8,1.,4.8
1979-07-01 09:19:36.870 ,4,0,0.,4.8,2.,4.8,0.,4.8,0.,4.8
1979-07-01 09:19:41.670 ,4,0,0.,4.8,7.,4.8,1.,4.8,1.,4.8
1979-07-01 09:19:46.470 ,4,0,0.,4.8,2.,4.8,1.,4.8,3.,4.8
1979-07-01 09:19:51.270 ,4,0,0.,4.8,6.,4.8,3.,4.8,0.,4.8
1979-07-01 09:19:56.070 ,4,0,0.,4.8,6.,4.8,0.,4.8,2.,4.8
1979-07-01 09:20:00.870 ,3,0,0.,4.8,5.,4.8,1.,4.8,1.,4.8
1979-07-01 09:20:05.670 ,3,0,0.,4.8,3.,4.8,4.,4.8,1.,4.8
1979-07-01 09:20:10.470 ,3,0,0.,4.8,9.,4.8,1.,4.8,2.,4.8
1979-07-01 09:20:15.270 ,3,0,0.,4.8,3.,4.8,1.,4.8,1.,4.8
1979-07-01 09:20:20.070 ,3,0,0.,4.8,1.,4.8,0.,4.8,1.,4.8
1979-07-01 09:20:24.870 ,3,0,0.,4.8,4.,4.8,4.,4.8,0.,4.8
1979-07-01 09:20:29.670 ,3,0,0.,4.8,2.,4.8,1.,4.8,2.,4.8
1979-07-01 09:20:34.470 ,3,0,0.,4.8,4.,4.8,1.,4.8,3.,4.8
1979-07-01 09:20:39.270 ,3,0,0.,4.8,4.,4.8,2.,4.8,0.,4.8
1979-07-01 09:20:44.070 ,3,0,0.,4.8,0.,4.8,1.,4.8,0.,4.8
1979-07-01 09:20:48.870 ,2,0,0.,4.8,3.,4.8,1.,4.8,1.,4.8
1979-07-01 09:20:53.670 ,2,0,,0,,0,,0,,0
1979-07-01 09:20:58.470 ,2,0,0.,4.8,3.,4.8,0.,4.8,0.,4.8
1979-07-01 09:21:03.270 ,2,0,0.,4.8,2.,4.8,1.,4.8,1.,4.8
1979-07-01 09:21:08.070 ,2,0,0.,4.8,3.,4.8,0.,4.8,0.,4.8
1979-07-01 09:21:12.870 ,2,0,0.,4.8,2.,4.8,0.,4.8,3.,4.8
1979-07-01 09:21:17.670 ,2,0,0.,4.8,4.,4.8,1.,4.8,0.,4.8
1979-07-01 09:21:22.470 ,2,0,0.,4.8,2.,4.8,0.,4.8,2.,4.8
1979-07-01 09:21:27.270 ,2,0,0.,4.8,2.,4.8,1.,4.8,0.,4.8
1979-07-01 09:21:32.070 ,2,0,0.,4.8,3.,4.8,1.,4.8,0.,4.8
1979-07-01 09:21:36.870 ,1,0,0.,4.8,0.,4.8,0.,4.8,0.,4.8
1979-07-01 09:21:41.670 ,1,0,0.,4.8,2.,4.8,2.,4.8,1.,4.8
1979-07-01 09:21:46.470 ,1,0,0.,4.8,4.,4.8,1.,4.8,1.,4.8
1979-07-01 09:21:51.270 ,1,0,0.,4.8,2.,4.8,0.,4.8,0.,4.8
1979-07-01 09:21:56.070 ,1,0,0.,4.8,1.,4.8,1.,4.8,0.,4.8
1979-07-01 09:22:00.870 ,1,0,0.,4.8,0.,4.8,0.,4.8,0.,4.8
1979-07-01 09:22:05.670 ,1,0,0.,4.8,1.,4.8,1.,4.8,1.,4.8
1979-07-01 09:22:10.470 ,1,0,0.,4.8,0.,4.8,2.,4.8,1.,4.8
1979-07-01 09:22:15.270 ,1,0,0.,4.8,1.,4.8,2.,4.8,1.,4.8
1979-07-01 09:22:20.070 ,1,0,0.,4.8,5.,4.8,2.,4.8,1.,4.8
1979-07-01 09:22:24.870 ,0,0,0.,4.8,4.,4.8,1.,4.8,1.,4.8
1979-07-01 09:22:29.670 ,0,0,0.,4.8,2.,4.8,1.,4.8,1.,4.8
1979-07-01 09:22:34.470 ,0,0,0.,4.8,1.,4.8,1.,4.8,0.,4.8
1979-07-01 09:22:39.270 ,0,0,0.,4.8,2.,4.8,2.,4.8,0.,4.8
1979-07-01 09:22:44.070 ,0,0,0.,4.8,2.,4.8,1.,4.8,0.,4.8
1979-07-01 09:22:48.870 ,0,0,0.,4.8,4.,4.8,1.,4.8,0.,4.8
1979-07-01 09:22:53.670 ,0,0,0.,4.8,3.,4.8,1.,4.8,2.,4.8
1979-07-01 09:22:58.470 ,0,0,0.,4.8,3.,4.8,2.,4.8,0.,4.8
1979-07-01 09:23:03.270 ,0,0,0.,4.8,2.,4.8,3.,4.8,1.,4.8
1979-07-01 09:23:08.070 ,0,0,0.,4.8,1.,4.8,0.,4.8,0.,4.8
1979-07-01 09:23:12.870 ,0,0,0.,4.8,4.,4.8,2.,4.8,0.,4.8
1979-07-01 09:23:17.670 ,0,0,0.,4.8,1.,4.8,0.,4.8,0.,4.8
1979-07-01 09:23:22.470 ,0,0,0.,4.8,5.,4.8,0.,4.8,1.,4.8
1979-07-01 09:23:27.270 ,0,0,0.,4.8,3.,4.8,1.,4.8,2.,4.8
1979-07-01 09:23:32.070 ,0,0,0.,4.8,1.,4.8,1.,4.8,1.,4.8
1979-07-01 09:23:36.870 ,0,0,0.,4.8,3.,4.8,2.,4.8,1.,4.8
1979-07-01 09:23:41.670 ,0,0,0.,4.8,3.,4.8,1.,4.8,2.,4.8
1979-07-01 09:23:46.470 ,0,0,0.,4.8,3.,4.8,2.,4.8,2.,4.8
1979-07-01 09:23:51.270 ,0,0,0.,4.8,3.,4.8,2.,4.8,0.,4.8
1979-07-01 09:23:56.070 ,0,0,0.,4.8,4.,4.8,0.,4.8,1.,4.8
1979-07-01 09:24:00.870 ,1,0,0.,4.8,1.,4.8,0.,4.8,0.,4.8
1979-07-01 09:24:05.670 ,1,0,0.,4.8,4.,4.8,1.,4.8,0.,4.8
1979-07-01 09:24:10.470 ,1,0,0.,4.8,2.,4.8,2.,4.8,0.,4.8
1979-07-01 09:24:15.270 ,1,0,0.,4.8,1.,4.8,0.,4.8,0.,4.8
1979-07-01 09:24:20.070 ,1,0,0.,4.8,0.,4.8,1.,4.8,0.,4.8
1979-07-01 09:24:24.870 ,1,0,0.,4.8,3.,4.8,1.,4.8,1.,4.8
1979-07-01 09:24:29.670 ,1,0,0.,4.8,1.,4.8,0.,4.8,0.,4.8
1979-07-01 09:24:34.470 ,1,0,0.,4.8,0.,4.8,0.,4.8,1.,4.8
1979-07-01 09:24:39.270 ,1,0,0.,4.8,1.,4.8,0.,4.8,0.,4.8
1979-07-01 09:24:44.070 ,1,0,0.,4.8,4.,4.8,2.,4.8,0.,4.8
1979-07-01 09:24:48.870 ,2,0,0.,4.8,1.,4.8,0.,4.8,1.,4.8
1979-07-01 09:24:53.670 ,2,0,0.,4.8,4.,4.8,0.,4.8,1.,4.8
1979-07-01 09:24:58.470 ,2,0,0.,4.8,3.,4.8,1.,4.8,1.,4.8
1979-07-01 09:25:03.270 ,2,0,0.,4.8,5.,4.8,2.,4.8,0.,4.8
1979-07-01 09:25:08.070 ,2,0,0.,4.8,1.,4.8,2.,4.8,0.,4.8
1979-07-01 09:25:12.870 ,2,0,0.,4.8,3.,4.8,1.,4.8,1.,4.8
1979-07-01 09:25:17.670 ,2,0,0.,4.8,3.,4.8,1.,4.8,0.,4.8
1979-07-01 09:25:22.470 ,2,0,0.,4.8,3.,4.8,1.,4.8,0.,4.8
1979-07-01 09:25:27.270 ,2,0,0.,4.8,3.,4.8,0.,4.8,1.,4.8
1979-07-01 09:25:32.070 ,2,0,0.,4.8,2.,4.8,0.,4.8,2.,4.8
1979-07-01 09:25:36.870 ,3,0,0.,4.8,2.,4.8,0.,4.8,0.,4.8
1979-07-01 09:25:41.670 ,3,0,0.,4.8,6.,4.8,0.,4.8,0.,4.8
1979-07-01 09:25:46.470 ,3,0,0.,4.8,5.,4.8,2.,4.8,0.,4.8
1979-07-01 09:25:51.270 ,3,0,0.,4.8,2.,4.8,2.,4.8,2.,4.8
1979-07-01 09:25:56.070 ,3,0,0.,4.8,6.,4.8,4.,4.8,1.,4.8
1979-07-01 09:26:00.870 ,3,0,0.,4.8,5.,4.8,1.,4.8,1.,4.8
1979-07-01 09:26:05.670 ,3,0,0.,4.8,4.,4.8,2.,4.8,1.,4.8
1979-07-01 09:26:10.470 ,3,0,0.,4.8,1.,4.8,2.,4.8,0.,4.8
1979-07-01 09:26:15.270 ,3,0,0.,4.8,4.,4.8,1.,4.8,0.,4.8
1979-07-01 09:26:20.070 ,3,0,0.,4.8,4.,4.8,3.,4.8,1.,4.8
1979-07-01 09:26:24.870 ,4,0,0.,4.8,2.,4.8,3.,4.8,2.,4.8
1979-07-01 09:26:29.670 ,4,0,0.,4.8,6.,4.8,2.,4.8,1.,4.8
1979-07-01 09:26:34.470 ,4,0,0.,4.8,6.,4.8,1.,4.8,3.,4.8
1979-07-01 09:26:39.270 ,4,0,0.,4.8,8.,4.8,1.,4.8,1.,4.8
1979-07-01 09:26:44.070 ,4,0,0.,4.8,6.,4.8,1.,4.8,0.,4.8
1979-07-01 09:26:48.870 ,4,0,0.,4.8,7.,4.8,2.,4.8,2.,4.8
1979-07-01 09:26:53.670 ,4,0,0.,4.8,6.,4.8,1.,4.8,2.,4.8
1979-07-01 09:26:58.470 ,4,0,0.,4.8,7.,4.8,0.,4.8,2.,4.8
1979-07-01 09:27:03.270 ,4,0,0.,4.8,5.,4.8,1.,4.8,0.,4.8
1979-07-01 09:27:08.070 ,4,0,0.,4.8,8.,4.8,2.,4.8,2.,4.8
1979-07-01 09:27:12.870 ,5,0,0.,4.8,11.,4.8,3.,4.8,0.,4.8
1979-07-01 09:27:17.670 ,5,0,0.,4.8,11.,4.8,0.,4.8,2.,4.8
1979-07-01 09:27:22.470 ,5,0,0.,4.8,5.,4.8,0.,4.8,1.,4.8
1979-07-01 09:27:27.270 ,5,0,0.,4.8,9.,4.8,1.,4.8,0.,4.8
1979-07-01 09:27:32.070 ,5,0,0.,4.8,8.,4.8,1.,4.8,1.,4.8
1979-07-01 09:27:36.870 ,5,0,0.,4.8,12.,4.8,1.,4.8,0.,4.8
1979-07-01 09:27:41.670 ,5,0,0.,4.8,6.,4.8,3.,4.8,0.,4.8
1979-07-01 09:27:46.470 ,5,0,0.,4.8,8.,4.8,3.,4.8,1.,4.8
1979-07-01 09:27:51.270 ,5,0,0.,4.8,6.,4.8,2.,4.8,0.,4.8
1979-07-01 09:27:56.070 ,5,0,0.,4.8,6.,4.8,2.,4.8,1.,4.8
1979-07-01 09:28:00.870 ,6,0,0.,4.8,7.,4.8,5.,4.8,1.,4.8
1979-07-01 09:28:05.670 ,6,0,0.,4.8,4.,4.8,1.,4.8,1.,4.8
1979-07-01 09:28:10.470 ,6,0,0.,4.8,3.,4.8,3.,4.8,2.,4.8
1979-07-01 09:28:15.270 ,6,0,0.,4.8,5.,4.8,4.,4.8,1.,4.8
1979-07-01 09:28:20.070 ,6,0,0.,4.8,0.,4.8,3.,4.8,0.,4.8
1979-07-01 09:28:24.870 ,6,0,0.,4.8,7.,4.8,1.,4.8,3.,4.8
1979-07-01 09:28:29.670 ,6,0,0.,4.8,7.,4.8,3.,4.8,1.,4.8
1979-07-01 09:28:34.470 ,6,0,0.,4.8,5.,4.8,1.,4.8,1.,4.8
1979-07-01 09:28:39.270 ,6,0,0.,4.8,1.,4.8,2.,4.8,4.,4.8
1979-07-01 09:28:44.070 ,6,0,0.,4.8,7.,4.8,0.,4.8,0.,4.8
1979-07-01 09:28:48.870 ,7,0,0.,4.8,10.,4.8,0.,4.8,1.,4.8
1979-07-01 09:28:53.670 ,7,0,0.,4.8,7.,4.8,3.,4.8,0.,4.8
1979-07-01 09:28:58.470 ,7,0,0.,4.8,0.,4.8,0.,4.8,0.,4.8
1979-07-01 09:29:03.270 ,7,0,0.,4.8,0.,4.8,0.,4.8,0.,4.8
1979-07-01 09:29:08.070 ,7,0,0.,4.8,0.,4.8,0.,4.8,0.,4.8
1979-07-01 09:29:12.870 ,7,0,0.,4.8,1.,4.8,1.,4.8,0.,4.8
1979-07-01 09:29:17.670 ,7,0,0.,4.8,0.,4.8,0.,4.8,0.,4.8
1979-07-01 09:29:22.470 ,7,0,0.,4.8,0.,4.8,0.,4.8,0.,4.8
1979-07-01 09:29:27.270 ,7,0,0.,4.8,0.,4.8,0.,4.8,0.,4.8
1979-07-01 09:29:32.070 ,7,0,0.,4.8,0.,4.8,0.,4.8,0.,4.8
1979-07-01 09:29:36.870 ,7,0,0.,4.8,0.,4.8,0.,4.8,0.,4.8
1979-07-01 09:29:41.670 ,7,0,0.,4.8,0.,4.8,0.,4.8,0.,4.8
1979-07-01 09:29:46.470 ,7,0,0.,4.8,1.,4.8,0.,4.8,0.,4.8
1979-07-01 09:29:51.270 ,7,0,0.,4.8,0.,4.8,0.,4.8,0.,4.8
1979-07-01 09:29:56.070 ,7,0,0.,4.8,1.,4.8,1.,4.8,0.,4.8
1979-07-01 09:30:00.870 ,7,0,0.,4.8,2.,4.8,0.,4.8,0.,4.8
1979-07-01 09:30:05.670 ,7,0,0.,4.8,1.,4.8,1.,4.8,0.,4.8
1979-07-01 09:30:10.470 ,7,0,0.,4.8,1.,4.8,0.,4.8,0.,4.8
1979-07-01 09:30:15.270 ,7,0,0.,4.8,2.,4.8,0.,4.8,0.,4.8
1979-07-01 09:30:20.070 ,7,0,0.,4.8,2.,4.8,0.,4.8,0.,4.8
1979-07-01 09:30:24.870 ,6,0,0.,4.8,0.,4.8,0.,4.8,0.,4.8
1979-07-01 09:30:29.670 ,6,0,0.,4.8,0.,4.8,0.,4.8,0.,4.8
1979-07-01 09:30:34.470 ,6,0,0.,4.8,2.,4.8,0.,4.8,1.,4.8
1979-07-01 09:30:39.270 ,6,0,0.,4.8,1.,4.8,1.,4.8,1.,4.8
1979-07-01 09:30:44.070 ,6,0,0.,4.8,5.,4.8,4.,4.8,1.,4.8
1979-07-01 09:30:48.870 ,6,0,0.,4.8,6.,4.8,0.,4.8,0.,4.8
1979-07-01 09:30:53.670 ,6,0,0.,4.8,6.,4.8,2.,4.8,3.,4.8
1979-07-01 09:30:58.470 ,6,0,0.,4.8,6.,4.8,2.,4.8,0.,4.8
1979-07-01 09:31:03.270 ,6,0,0.,4.8,6.,4.8,3.,4.8,1.,4.8
1979-07-01 09:31:08.070 ,6,0,0.,4.8,4.,4.8,2.,4.8,1.,4.8
1979-07-01 09:31:12.870 ,5,0,0.,4.8,2.,4.8,4.,4.8,0.,4.8
1979-07-01 09:31:17.670 ,5,0,0.,4.8,5.,4.8,1.,4.8,0.,4.8
1979-07-01 09:31:22.470 ,5,0,0.,4.8,8.,4.8,8.,4.8,0.,4.8
1979-07-01 09:31:27.270 ,5,0,0.,4.8,5.,4.8,0.,4.8,1.,4.8
1979-07-01 09:31:32.070 ,5,0,0.,4.8,6.,4.8,1.,4.8,1.,4.8
1979-07-01 09:31:36.870 ,5,0,0.,4.8,10.,4.8,5.,4.8,0.,4.8
1979-07-01 09:31:41.670 ,5,0,0.,4.8,8.,4.8,0.,4.8,0.,4.8
1979-07-01 09:31:46.470 ,5,0,0.,4.8,14.,4.8,2.,4.8,0.,4.8
1979-07-01 09:31:51.270 ,5,0,0.,4.8,8.,4.8,1.,4.8,4.,4.8
1979-07-01 09:31:56.070 ,5,0,0.,4.8,9.,4.8,1.,4.8,0.,4.8
1979-07-01 09:32:00.870 ,4,0,0.,4.8,5.,4.8,2.,4.8,0.,4.8
1979-07-01 09:32:05.670 ,4,0,0.,4.8,2.,4.8,1.,4.8,0.,4.8
1979-07-01 09:32:10.470 ,4,0,0.,4.8,8.,4.8,3.,4.8,6.,4.8
1979-07-01 09:32:15.270 ,4,0,0.,4.8,9.,4.8,0.,4.8,1.,4.8
1979-07-01 09:32:20.070 ,4,0,0.,4.8,10.,4.8,4.,4.8,1.,4.8
1979-07-01 09:32:24.870 ,4,0,0.,4.8,4.,4.8,1.,4.8,3.,4.8
1979-07-01 09:32:29.670 ,4,0,0.,4.8,11.,4.8,2.,4.8,1.,4.8
1979-07-01 09:32:34.470 ,4,0,0.,4.8,5.,4.8,2.,4.8,0.,4.8
1979-07-01 09:32:39.270 ,4,0,0.,4.8,10.,4.8,3.,4.8,1.,4.8
1979-07-01 09:32:44.070 ,4,0,0.,4.8,9.,4.8,2.,4.8,0.,4.8
1979-07-01 09:32:48.870 ,3,0,0.,4.8,5.,4.8,3.,4.8,1.,4.8
1979-07-01 09:32:53.670 ,3,0,0.,4.8,9.,4.8,3.,4.8,2.,4.8
1979-07-01 09:32:58.470 ,3,0,0.,4.8,4.,4.8,2.,4.8,1.,4.8
1979-07-01 09:33:03.270 ,3,0,0.,4.8,2.,4.8,1.,4.8,0.,4.8
1979-07-01 09:33:08.070 ,3,0,0.,4.8,8.,4.8,2.,4.8,1.,4.8
1979-07-01 09:33:12.870 ,3,0,0.,4.8,2.,4.8,3.,4.8,0.,4.8
1979-07-01 09:33:17.670 ,3,0,0.,4.8,1.,4.8,0.,4.8,0.,4.8
1979-07-01 09:33:22.470 ,3,0,0.,4.8,0.,4.8,1.,4.8,0.,4.8
1979-07-01 09:33:27.270 ,3,0,0.,4.8,2.,4.8,0.,4.8,0.,4.8
1979-07-01 09:33:32.070 ,3,0,0.,4.8,6.,4.8,0.,4.8,0.,4.8
1979-07-01 09:33:36.870 ,2,0,0.,4.8,3.,4.8,1.,4.8,0.,4.8
1979-07-01 09:33:41.670 ,2,0,0.,4.8,5.,4.8,1.,4.8,0.,4.8
1979-07-01 09:33:46.470 ,2,0,0.,4.8,3.,4.8,0.,4.8,1.,4.8
1979-07-01 09:33:51.270 ,2,0,0.,4.8,3.,4.8,1.,4.8,0.,4.8
1979-07-01 09:33:56.070 ,2,0,0.,4.8,5.,4.8,1.,4.8,0.,4.8
1979-07-01 09:34:00.870 ,2,0,0.,4.8,2.,4.8,0.,4.8,1.,4.8
1979-07-01 09:34:05.670 ,2,0,0.,4.8,3.,4.8,0.,4.8,1.,4.8
1979-07-01 09:34:10.470 ,2,0,0.,4.8,4.,4.8,0.,4.8,2.,4.8